2020-026B

Last updated on April 29, 2020, 12:02 a.m. UTC

1 45596U 20026B   20119.06935500  .07957000  12602-4  17114-3 0  9990
2 45596  51.6340 234.6732 0004063  73.1906 289.6226 16.46607898   488

Satellite is not in orbit.